Location: Newark
(40.4667°N, 5.6000°W)
Time: 19:00:54
(UTC+00:00)

ISS - Visible Passes

Search period start: 22 March 2019 00:00
Search period end: 01 April 2019 00:00
Orbit: 406 x 411 km, 51.6° (Epoch: 23 March)

Date Brightness Start Highest point End Pass type
(mag) Time Alt. Az. Time Alt. Az. Time Alt. Az.
22 Mar -3.3 20:09:14 10° WSW 20:12:29 59° NW 20:13:33 36° NNE visible
23 Mar -3.9 19:18:08 10° SW 19:21:26 75° SE 19:24:44 10° NE visible
23 Mar -1.3 20:55:45 10° WNW 20:57:58 20° NNW 20:57:58 20° NNW visible
24 Mar -1.9 20:04:08 10° W 20:07:03 28° NNW 20:09:24 13° NNE visible
25 Mar -2.7 19:12:41 10° WSW 19:15:51 44° NNW 19:19:03 10° NE visible
25 Mar -1.0 20:51:10 10° NW 20:53:03 14° NNW 20:53:27 14° N visible
26 Mar -1.2 19:59:22 10° WNW 20:01:43 18° NNW 20:04:03 10° NNE visible
27 Mar -1.6 19:07:39 10° W 19:10:24 24° NNW 19:13:09 10° NNE visible
27 Mar -0.9 20:46:28 10° NNW 20:47:52 12° N 20:48:24 12° N visible
28 Mar -1.0 19:54:44 10° NW 19:56:26 13° N 19:58:08 10° NNE visible
29 Mar -1.1 20:41:10 10° NNW 20:42:39 12° N 20:43:03 12° NNE visible
30 Mar -1.1 19:49:50 10° NNW 19:51:11 12° N 19:52:32 10° NNE visible
30 Mar -0.5 21:26:15 10° NNW 21:26:41 12° NNW 21:26:41 12° NNW visible
31 Mar -1.4 20:35:17 10° NNW 20:37:20 15° NNE 20:37:33 15° NNE visible
